Weather History for PAGL - February, 2013

Change the Weather History Date:

Monday, February 11, 2013

  Actual Average Record
Temperature  
Mean Temperature 2 °F -  
Max Temperature 10 °F - - ()
Min Temperature -7 °F - - ()
Degree Days  
Heating Degree Days 64    
Moisture  
Dew Point -10 °F    
Average Humidity 58    
Maximum Humidity 100    
Minimum Humidity 25    
Precipitation  
Precipitation 0.00 in - - ()
Sea Level Pressure  
Sea Level Pressure 29.60 in    
Wind  
Wind Speed 13 mph (ESE)    
Max Wind Speed 25 mph    
Max Gust Speed 31 mph    
Visibility 10 miles    
Events      
T = Trace of Precipitation, MM = Missing Value Source: NWS Daily Summary

Daily Weather History Graph

Daily Weather History Graph

Search for Another Location

Airport or City:

Trip Planner

Search our weather history database for the weather conditions in past years. The results will help you decide how hot, cold, wet, or windy it might be!

Date:

Astronomy

Feb. 11, 2013 Rise Set
Actual Time 10:01 AM AKST 6:12 PM AKST
Civil Twilight 9:07 AM AKST 7:06 PM AKST
Nautical Twilight 8:10 AM AKST 8:03 PM AKST
Astronomical Twilight 7:14 AM AKST 8:59 PM AKST
Moon 9:34 AM AKST (2/11) 9:32 PM AKST (2/11)
Length of Visible Light 9h 58m
Length of Day
8h 11m
Waxing Crescent, 3% of the Moon is Illuminated
Feb 11
Waxing Crescent
Feb 17
First Quarter
Feb 25
Full
Mar 4
Last Quarter
Mar 11
New

Hourly Weather History & Observations

Time (AKST) Temp. Windchill Dew Point Humidity Pressure Visibility Wind Dir Wind Speed Gust Speed Precip Events Conditions
12:16 AM -0.4 °F -22.3 °F - N/A% 29.52 in 8.0 mi South 19.6 mph - N/A   Overcast
12:36 AM -0.4 °F -20.5 °F -4.0 °F 85% 29.53 in 10.0 mi South 16.1 mph - N/A   Overcast
12:56 AM -0.4 °F -19.9 °F -18.4 °F 43% 29.54 in 10.0 mi South 15.0 mph - N/A   Overcast
1:16 AM -0.4 °F -19.9 °F -5.8 °F 78% 29.55 in 10.0 mi South 15.0 mph - N/A   Overcast
1:36 AM -2.2 °F -22.9 °F -2.2 °F 100% 29.56 in 10.0 mi South 16.1 mph - N/A   Mostly Cloudy
1:56 AM -2.2 °F -21.5 °F -16.6 °F 50% 29.57 in 10.0 mi South 13.8 mph - N/A   Clear
2:16 AM -2.2 °F -21.5 °F -16.6 °F 50% 29.58 in 10.0 mi South 13.8 mph - N/A   Clear
2:36 AM -2.2 °F -21.5 °F - N/A% 29.59 in 10.0 mi South 13.8 mph - N/A   Partly Cloudy
2:56 AM -2.2 °F -18.9 °F -16.6 °F 50% 29.60 in 10.0 mi South 10.4 mph - N/A   Mostly Cloudy
3:16 AM -2.2 °F -18.9 °F -20.2 °F 42% 29.61 in 10.0 mi South 10.4 mph - N/A   Scattered Clouds
3:36 AM -2.2 °F -18.9 °F - N/A% 29.61 in 10.0 mi South 10.4 mph - N/A   Partly Cloudy
3:56 AM -2.2 °F -19.9 °F -14.8 °F 55% 29.62 in 10.0 mi South 11.5 mph - N/A   Clear
4:16 AM -4.0 °F -21.2 °F -25.6 °F 35% 29.62 in 10.0 mi South 10.4 mph - N/A   Clear
4:36 AM -2.2 °F -16.8 °F - N/A% 29.63 in 10.0 mi South 8.1 mph - N/A   Clear
4:56 AM -4.0 °F -19.0 °F -14.8 °F 60% 29.63 in 10.0 mi South 8.1 mph - N/A   Clear
5:16 AM -4.0 °F -16.3 °F -23.8 °F 38% 29.64 in 10.0 mi South 5.8 mph - N/A   Clear
5:36 AM -5.8 °F -16.7 °F - N/A% 29.64 in 10.0 mi SSE 4.6 mph - N/A   Clear
5:56 AM -4.0 °F -17.8 °F -27.4 °F 32% 29.64 in 10.0 mi SE 6.9 mph - N/A   Clear
6:16 AM -5.8 °F -19.9 °F - N/A% 29.64 in 10.0 mi East 6.9 mph - N/A   Clear
6:36 AM -7.6 °F -22.1 °F -29.2 °F 34% 29.65 in 10.0 mi ENE 6.9 mph - N/A   Clear
6:56 AM -7.6 °F -23.4 °F - N/A% 29.65 in 10.0 mi East 8.1 mph - N/A   Clear
7:16 AM -5.8 °F -22.4 °F - N/A% 29.64 in 10.0 mi East 9.2 mph - N/A   Clear
7:36 AM -7.6 °F -23.4 °F -14.8 °F 71% 29.64 in 10.0 mi ENE 8.1 mph - N/A   Clear
7:56 AM -5.8 °F -19.9 °F -16.6 °F 60% 29.63 in 10.0 mi East 6.9 mph - N/A   Clear
8:16 AM -5.8 °F -18.4 °F -14.8 °F 65% 29.63 in 10.0 mi East 5.8 mph - N/A   Clear
8:36 AM -4.0 °F -14.6 °F - N/A% 29.64 in 10.0 mi East 4.6 mph - N/A   Clear
8:56 AM -2.2 °F -15.6 °F -11.2 °F 66% 29.64 in 10.0 mi East 6.9 mph - N/A   Clear
9:16 AM -2.2 °F -18.9 °F -16.6 °F 50% 29.64 in 10.0 mi East 10.4 mph - N/A   Clear
9:36 AM -2.2 °F -16.8 °F -2.2 °F 100% 29.64 in 10.0 mi East 8.1 mph - N/A   Mostly Cloudy
9:56 AM -2.2 °F -16.8 °F - N/A% 29.64 in 10.0 mi East 8.1 mph - N/A   Overcast
10:16 AM -0.4 °F -16.7 °F -5.8 °F 78% 29.64 in 10.0 mi East 10.4 mph - N/A   Overcast
10:36 AM -0.4 °F -17.6 °F -22.0 °F 36% 29.64 in 10.0 mi ESE 11.5 mph - N/A   Overcast
10:56 AM -0.4 °F -19.2 °F - N/A% 29.64 in 10.0 mi East 13.8 mph - N/A   Mostly Cloudy
11:16 AM 1.4 °F -17.6 °F -25.6 °F 27% 29.63 in 10.0 mi East 15.0 mph - N/A   Mostly Cloudy
11:36 AM 1.4 °F -14.5 °F - N/A% 29.63 in 10.0 mi East 10.4 mph - N/A   Overcast
11:56 AM 1.4 °F -9.9 °F -18.4 °F 39% 29.63 in 10.0 mi NNE 5.8 mph - N/A   Overcast
12:16 PM 1.4 °F -8.3 °F -7.6 °F 66% 29.63 in 10.0 mi NNW 4.6 mph - N/A   Overcast
12:36 PM 3.2 °F -12.2 °F 3.2 °F 100% 29.62 in 10.0 mi East 10.4 mph 16.1 mph N/A   Overcast
12:56 PM 3.2 °F -9.1 °F -25.6 °F 25% 29.63 in 10.0 mi ENE 6.9 mph 17.3 mph N/A   Overcast
1:56 PM 6.8 °F -5.9 °F 5.0 °F 92% 29.61 in 10.0 mi NE 8.1 mph 18.4 mph N/A   Overcast
2:16 PM 6.8 °F -8.6 °F -16.6 °F 34% 29.59 in 10.0 mi NE 11.5 mph - N/A   Overcast
2:36 PM 6.8 °F -5.9 °F -0.4 °F 72% 29.57 in 10.0 mi ENE 8.1 mph - N/A   Overcast
2:56 PM 8.6 °F -5.5 °F -11.2 °F 40% 29.57 in 10.0 mi ENE 10.4 mph 18.4 mph N/A   Overcast
3:16 PM 8.6 °F -2.6 °F -5.8 °F 52% 29.56 in 10.0 mi SE 6.9 mph - N/A   Overcast
3:36 PM 8.6 °F 0.1 °F -5.8 °F 52% 29.56 in 10.0 mi ENE 4.6 mph - N/A   Overcast
3:56 PM 8.6 °F -5.5 °F -11.2 °F 40% 29.54 in 10.0 mi NNW 10.4 mph - N/A   Overcast
4:16 PM 8.6 °F -9.5 °F 8.6 °F 100% 29.53 in 10.0 mi East 17.3 mph 23.0 mph N/A   Overcast
4:36 PM 8.6 °F -11.9 °F -0.4 °F 67% 29.52 in 9.0 mi East 23.0 mph 31.1 mph N/A   Overcast
4:56 PM 8.6 °F -12.7 °F -11.2 °F 40% 29.52 in 7.0 mi East 25.3 mph 29.9 mph N/A   Overcast
5:16 PM 8.6 °F -12.7 °F -9.4 °F 44% 29.52 in 10.0 mi East 25.3 mph 29.9 mph N/A   Overcast
5:36 PM 8.6 °F -11.9 °F 8.6 °F 100% 29.53 in 8.0 mi East 23.0 mph 29.9 mph N/A   Overcast
5:56 PM 10.4 °F -9.5 °F 5.0 °F 79% 29.54 in 10.0 mi ESE 23.0 mph - N/A   Overcast
6:16 PM 10.4 °F -8.2 °F -13.0 °F 34% 29.55 in 10.0 mi East 19.6 mph 26.5 mph N/A   Overcast
6:36 PM 10.4 °F -6.6 °F -7.6 °F 44% 29.56 in 10.0 mi East 16.1 mph 23.0 mph N/A   Overcast
6:56 PM 8.6 °F -8.3 °F 8.6 °F 100% 29.56 in 10.0 mi East 15.0 mph - N/A   Overcast
7:16 PM 8.6 °F -8.3 °F -2.2 °F 62% 29.57 in 10.0 mi East 15.0 mph - N/A   Overcast
7:36 PM 10.4 °F -7.2 °F -16.6 °F 29% 29.57 in 10.0 mi East 17.3 mph - N/A   Overcast
7:56 PM 10.4 °F -7.2 °F 6.8 °F 85% 29.57 in 10.0 mi ESE 17.3 mph - N/A   Overcast
8:16 PM 10.4 °F -6.0 °F 3.2 °F 73% 29.58 in 10.0 mi East 15.0 mph - N/A   Overcast
8:36 PM 10.4 °F -7.2 °F -16.6 °F 29% 29.58 in 10.0 mi ESE 17.3 mph - N/A   Overcast
8:56 PM 10.4 °F -7.2 °F -2.2 °F 57% 29.58 in 10.0 mi ESE 17.3 mph - N/A   Overcast
9:16 PM 10.4 °F -7.7 °F 8.6 °F 92% 29.58 in 10.0 mi ESE 18.4 mph - N/A   Overcast
9:36 PM 8.6 °F -8.9 °F -18.4 °F 28% 29.59 in 10.0 mi ESE 16.1 mph - N/A   Overcast
9:56 PM 8.6 °F -7.7 °F 3.2 °F 79% 29.59 in 10.0 mi ESE 13.8 mph - N/A   Mostly Cloudy
10:16 PM 10.4 °F -7.2 °F -0.4 °F 62% 29.59 in 10.0 mi ESE 17.3 mph - N/A   Overcast
10:36 PM 8.6 °F -8.3 °F -18.4 °F 28% 29.60 in 10.0 mi ESE 15.0 mph - N/A   Overcast
10:56 PM 8.6 °F -7.0 °F - N/A% 29.60 in 10.0 mi ESE 12.7 mph - N/A   Scattered Clouds
11:16 PM 8.6 °F -2.6 °F -2.2 °F 62% 29.61 in 10.0 mi NE 6.9 mph - N/A   Scattered Clouds
11:36 PM 8.6 °F -2.6 °F -16.6 °F 31% 29.61 in 10.0 mi East 6.9 mph - N/A   Mostly Cloudy
11:56 PM 8.6 °F -5.5 °F - N/A% 29.61 in 10.0 mi East 10.4 mph - N/A   Mostly Cloudy